Estevan,

7:43 AM CST on July 21, 2017 (GMT -0600)
Estevan

Weather History for CYEN - March, 2013

Change the Weather History Date:

Sunday, March 3, 2013

  Actual Average Record
Temperature  
Mean Temperature 22 °F -  
Max Temperature 25 °F 36 °F 41 °F (2005)
Min Temperature 19 °F 16 °F -18 °F (2003)
Degree Days  
Heating Degree Days 43    
Moisture  
Dew Point 20 °F    
Average Humidity 91    
Maximum Humidity 100    
Minimum Humidity 83    
Precipitation  
Precipitation 0.08 in 0.03 in - ()
Sea Level Pressure  
Sea Level Pressure 29.84 in    
Wind  
Wind Speed 13 mph ()    
Max Wind Speed 23 mph    
Max Gust Speed 32 mph    
Visibility 2.1 miles    
Events Fog , Snow    
Averages and records for this station are not official NWS values.
T = Trace of Precipitation, MM = Missing Value Source: Averaged Metar Reports

Daily Weather History Graph

Daily Weather History Graph

Search for Another Location

Airport or City:

Trip Planner

Search our weather history database for the weather conditions in past years. The results will help you decide how hot, cold, wet, or windy it might be!

Date:

Astronomy

Mar. 03, 2013 Rise Set
Actual Time 7:29 AM CST 6:38 PM CST
Civil Twilight 6:57 AM CST 7:10 PM CST
Nautical Twilight 6:21 AM CST 7:47 PM CST
Astronomical Twilight 5:43 AM CST 8:24 PM CST
Moon 12:53 AM CST (3/3) 10:11 AM CST (3/3)
Length of Visible Light 12h 12m
Length of Day
11h 09m
Waning Gibbous, 63% of the Moon is Illuminated
Mar 3
Waning Gibbous
Mar 4
Last Quarter
Mar 11
New
Mar 19
First Quarter
Mar 27
Full

Hourly Weather History & Observations

Time (CST) Temp. Windchill Dew Point Humidity Pressure Visibility Wind Dir Wind Speed Gust Speed Precip Events Conditions
12:36 AM - - - N/A% - 1.0 mi East 8.1 mph - N/A   Overcast
1:00 AM 19.4 °F 9.5 °F 19.4 °F 100% 30.01 in 1.5 mi ESE 8.1 mph - N/A   Overcast
1:18 AM - - - N/A% - 3.0 mi East 6.9 mph - N/A   Overcast
2:00 AM 21.2 °F 10.9 °F 19.4 °F 93% 29.99 in 2.0 mi ESE 9.2 mph - N/A   Overcast
3:00 AM 21.2 °F 10.1 °F 21.2 °F 100% 29.96 in 2.0 mi ESE 10.4 mph - N/A   Overcast
3:51 AM - - - N/A% - 5.0 mi East 12.7 mph - N/A   Overcast
4:00 AM 21.2 °F 8.3 °F 21.2 °F 100% 29.93 in 5.0 mi East 13.8 mph - N/A   Overcast
5:00 AM 21.2 °F 9.5 °F 19.4 °F 93% 29.91 in 6.0 mi East 11.5 mph - N/A   Overcast
6:00 AM 20 °F - 18 °F 89% 29.89 in 6 mi East 15.0 mph - -   Mist
6:00 AM 19.4 °F 5.5 °F 17.6 °F 93% 29.89 in 6.0 mi East 15.0 mph - N/A   Overcast
7:26 AM - - - N/A% - 2.0 mi East 15.0 mph - N/A   Overcast
7:41 AM - - - N/A% - 0.5 mi East 15.0 mph - N/A Fog Light Freezing Fog
8:00 AM 19.4 °F 4.5 °F 17.6 °F 93% 29.86 in 0.5 mi East 17.3 mph - N/A Fog Light Freezing Fog
9:00 AM 19.4 °F 5.5 °F 17.6 °F 93% 29.86 in 2.0 mi East 15.0 mph 20.7 mph N/A   Overcast
10:00 AM 21.2 °F 7.3 °F 19.4 °F 93% 29.84 in 3.0 mi ESE 16.1 mph - N/A   Overcast
11:00 AM 23.0 °F 10.1 °F 21.2 °F 93% 29.82 in 4.0 mi East 15.0 mph 21.9 mph N/A   Overcast
12:00 PM 24 °F - 21 °F 84% 29.81 in 3 mi East 15.0 mph - -   Mist
12:00 PM 23.0 °F 10.1 °F 21.2 °F 93% 29.81 in 3.0 mi East 15.0 mph 23.0 mph N/A   Overcast
1:00 PM 23.0 °F 9.6 °F 21.2 °F 93% 29.80 in 3.0 mi East 16.1 mph 21.9 mph N/A   Overcast
1:48 PM - - - N/A% - 1.2 mi East 17.3 mph 24.2 mph N/A   Overcast
2:00 PM 24.8 °F 11.5 °F 21.2 °F 86% 29.77 in 1.2 mi East 17.3 mph 23.0 mph N/A Snow Light Snow
3:00 PM 24.8 °F 11.5 °F 23.0 °F 93% 29.76 in 1.2 mi ESE 17.3 mph 24.2 mph N/A Snow Light Snow
4:00 PM 24.8 °F 11.9 °F 21.2 °F 86% 29.76 in 1.2 mi East 16.1 mph 25.3 mph N/A Snow Light Snow
5:20 PM - - - N/A% - 1.2 mi East 18.4 mph 25.3 mph N/A   Overcast
6:00 PM 25 °F - 22 °F 83% 29.76 in 1 mi East 16.1 mph - - Snow Light Snow
6:00 PM 24.8 °F 12.4 °F 21.2 °F 86% 29.76 in 1.2 mi East 15.0 mph 23.0 mph N/A Snow Light Snow
6:14 PM - - - N/A% - 2.0 mi East 19.6 mph 26.5 mph N/A   Overcast
7:00 PM 24.8 °F 10.0 °F 21.2 °F 86% 29.77 in 2.0 mi East 21.9 mph 32.2 mph N/A Snow Light Snow
7:14 PM - - - N/A% - 1.0 mi East 17.3 mph 25.3 mph N/A   Overcast
8:00 PM 23.0 °F 8.3 °F 21.2 °F 93% 29.78 in 1.0 mi East 19.6 mph 28.8 mph N/A Snow Light Snow
9:00 PM 23.0 °F 9.2 °F 21.2 °F 93% 29.80 in 1.0 mi East 17.3 mph 25.3 mph N/A Snow Light Snow
9:41 PM - - - N/A% - 0.8 mi East 20.7 mph 29.9 mph N/A   Unknown
10:00 PM 21.2 °F 5.6 °F 19.4 °F 93% 29.80 in 0.8 mi East 20.7 mph 29.9 mph N/A Snow Light Snow
10:16 PM - - - N/A% - 0.2 mi East 23.0 mph 31.1 mph N/A   Unknown
10:51 PM - - - N/A% - 0.8 mi ENE 23.0 mph 28.8 mph N/A   Unknown
11:00 PM 21.2 °F 4.9 °F 17.6 °F 86% 29.80 in 0.8 mi ENE 23.0 mph 29.9 mph N/A Snow Light Snow